Regional Weather Roundup
Issued by NWS Kansas City/Pleasant Hill, MO

Home | Current Version | Previous Version | Text Only | Print | Product List | Glossary On
Versions: 1 2 3 4 5 6 7 8 9 10 11 12 13 14 15 16 17 18 19 20 21 22 23 24 25 26 27
000
ASUS43 KEAX 240910
RWREAX

WEATHER ROUNDUP FOR EASTERN KANSAS AND NORTHWEST MISSOURI
NATIONAL WEATHER SERVICE KANSAS CITY/PLEASANT HILL MO
400 AM CDT SAT JUN 24 2017

KSZ040-057-103>105-MOZ028-029-037-043-241000-
...KANSAS CITY METROPOLITAN AREA...

CITY           SKY/WX    TMP DP  RH WIND       PRES   REMARKS
K.C. INTL      CLEAR     58  55  90 W7        30.12R
K.C. DOWNTOWN  PTCLDY    64  54  69 NW5       30.11R
LEES SUMMIT    CLEAR     62  55  77 W5        30.12R
OLATHE - IXD   CLEAR     59  54  83 NW6       30.13R
OLATHE - OJC   CLEAR     62  53  72 NW6       30.12R
LAWRENCE       PTCLDY    56  55  97 W5        30.13S

$$

MOZ001>008-011>017-020>025-030>033-038>040-044>046-053-054-241000-
...NORTHERN AND CENTRAL MISSOURI...

CITY           SKY/WX    TMP DP  RH WIND       PRES   REMARKS
ST. JOSEPH     CLEAR     56  54  93 CALM      30.13R
MOSBY          SUNNY     55  55 100 CALM      30.11R
WARRENSBURG    CLEAR     59  54  82 W5        30.10R
WHITEMAN AFB   CLEAR     59  59 100 W6        30.09R
CLINTON        CLEAR     57  55  94 W3        30.11R
SEDALIA        PTCLDY    60  57  89 W6        30.10R
WARSAW         NOT AVBL
CHILLICOTHE      N/A     61  53  75 CALM      30.10R
KIRKSVILLE     CLEAR     59  52  77 NW7       30.06S

$$

MOZ041-047>049-056>058-063>065-088>090-097-241000-
...EASTERN AND SOUTHERN MISSOURI...

CITY           SKY/WX    TMP DP  RH WIND       PRES   REMARKS
ST. LOUIS INTL PTCLDY    66  55  67 NW5       30.01R
SPIRIT OF STL  CLEAR     62  57  83 SW6       30.01S
COLUMBIA       PTCLDY    60  55  83 W6        30.06S
JEFFERSON CITY CLEAR     62  55  77 CALM      30.06S
ROLLA          CLEAR     59  54  83 W7        30.06R
OSAGE BEACH    CLEAR     62  54  74 NW3       30.09R
SPRINGFIELD    CLEAR     61  54  77 N7        30.10R
BRANSON        CLEAR     61  57  88 CALM      30.11S
JOPLIN         CLEAR     62  58  86 NE3       30.11S
WEST PLAINS    PTCLDY    63  54  72 N6        30.09R

$$

IAZ060-094-KSZ022-034>040-054-083-096-NEZ052-066-093-241000-
...KANSAS...SOUTHEAST NEBRASKA AND IOWA...

CITY           SKY/WX    TMP DP  RH WIND       PRES   REMARKS
TOPEKA         CLEAR     58  58 100 CALM      30.13S
MANHATTAN      CLEAR     55  51  86 CALM      30.15S
EMPORIA        PTCLDY    58  55  90 NW3       30.14F
CHANUTE        MOCLDY    62  56  80 N5        30.12S
WICHITA        CLOUDY    66  55  67 N7        30.14S
OMAHA          CLEAR     55  48  77 CALM      30.14R
LINCOLN        CLEAR     52  48  86 CALM      30.17S
FALLS CITY     CLEAR     55  51  86 NW7       30.13R
LAMONI         PTCLDY    54  51  90 W7        30.09S
DES MOINES     CLEAR     57  50  77 W6        30.06S

$$





USA.gov is the U.S. government's official web portal to all federal, state and local government web resources and services.